CZ-3B DEB, 42473

Orbit data source: Space-Track

CZ-3B DEB, 42473 is space debris in HEO originally from a launch on Mon, 19 Dec 2011 UTC launched from the Xichang Space Center, China (XSC). Debris objects in space refer to the collection of defunct objects orbiting the Earth. Examples of debris include non-operational satellites, rocket bodies, and fragments generated from explosions, collisions, or faulty payload assembly.

Loading next visibility...
Identifier
42473, 2011-077AN
Orbit
HEO
Country
Flag of CNCN / PRC
Related business
Manufacturer
CALT
Mission
Spacecraft
Bus & Motor
Unknown
Mass
Unknown
Launch date (UTC)
2011-12-19 (14 years ago)
Launch vehicle
Unknown
Launch site
Xichang Space Center, China (XSC)
Object type
Payload
Rocket body
Debris
Shape & HBR
Unknown shape, 2.1 m
Radar Cross Section
Medium (>0.1 m² and <1 m²)

Expand to show TLE details & history
Last TLE update: 5 days ago

TLE from 5 days ago
0 CZ-3B DEB
1 42473U 11077AN  26057.22595660 -.00000283  00000-0  00000+0 0  9994
2 42473  23.1999  83.9035 7155122  68.4586 350.2548  1.69217791 61213
Epoch: 2026-02-26T05:25Z
TLE epoch observation values (Epoch: 2026-02-26T05:25:22.650Z)
Latitude
0.00007°
Longitude
-153.37412°
Altitude
5,055.435 km
Speed
7.505 km/s
True Right ascension
05h 36m 12s
True Declination
0° 00' 00"
Sunlit
Object was in daylight at epoch
Visualization orbit readout
Latitude
Unknown
Longitude
Unknown
Altitude
Unknown
Speed
Unknown
Apparent Right ascension
Unknown
Apparent Declination
Unknown
Sunlit
N/A
Visualization observer readout
Local Sidereal Time
09:12:56
Azimuth
Unknown
Elevation
Unknown
Doppler factor
Unknown
Orbital elements
Apogee altitude
44,658.323 km
Perigee altitude
2,085.37 km
Semi-major axis
29,749.984 km
Eccentricity
0.71551
Inclination
23.1999°
RAAN
83.9035°
Arg. of periapsis
68.4586°
True anomaly
292.14938°
Mean anomaly
350.2548°
Eccentric anomaly
329.36415°
Mean motion
0.42297 °/min
Orbital period
851.12 mins
BSTAR
0
Loading maneuver chart data...
Computing Atmospheric mass density...
Loading historical data...
Loading historical data...
Loading historical data...
Loading historical data...
Loading historical data...
Loading historical data...
Loading historical data...

Documentation

Showing up to 5 results
|